LITLVLWX Weather Reports


Display with metric or nautical units.
time (UTC)temp
F
wind
direction
speed
MPH
gust
MPH
rain 1hr
in
rain 24hr
in
rain mn
in
humidity
%
barometer
mb
20210916151516 75 136 2.0 4.0 0.00 0.00 0.00 86 1013.7
20210916150533 74 117 3.0 6.0 0.00 0.00 0.00 87 1013.6
20210916145531 74 190 3.0 5.0 0.00 0.00 0.00 87 1013.7
20210916144531 73 155 2.0 3.0 0.00 0.00 0.00 88 1013.7
20210916143524 73 90 2.0 3.0 0.00 0.00 0.00 88 1013.6
20210916142517 72 297 1.0 3.0 0.00 0.00 0.00 89 1013.5
20210916141517 72 148 2.0 4.0 0.00 0.00 0.00 89 1013.4
20210916140517 72 0 2.0 3.0 0.00 0.00 0.00 89 1013.5
20210916135516 72 97 2.0 4.0 0.00 0.00 0.00 89 1013.5
20210916134533 72 319 2.0 5.0 0.00 0.00 0.00 89 1013.3
20210916133533 71 84 1.0 3.0 0.00 0.00 0.00 90 1013.2
20210916132531 70 110 1.0 3.0 0.00 0.00 0.00 90 1013.1
20210916131530 70 326 2.0 3.0 0.00 0.00 0.00 90 1013.1
20210916130524 70 45 1.0 3.0 0.00 0.00 0.00 91 1013.3
20210916125517 69 166 2.0 4.0 0.00 0.00 0.00 91 1013.1
20210916124517 69 10 1.0 3.0 0.00 0.00 0.00 91 1012.9
20210916123516 69 207 1.0 3.0 0.00 0.00 0.00 91 1012.8
20210916122515 68 181 2.0 5.0 0.00 0.00 0.00 91 1012.8
20210916121533 68 332 2.0 5.0 0.00 0.00 0.00 91 1012.9
20210916120533 68 345 2.0 4.0 0.00 0.00 0.00 91 1012.9
20210916115531 68 197 1.0 2.0 0.00 0.00 0.00 91 1012.6
20210916114530 68 282 1.0 3.0 0.00 0.00 0.00 91 1012.2
20210916113524 68 84 1.0 3.0 0.00 0.00 0.00 91 1012.3
20210916112517 68 95 1.0 3.0 0.00 0.00 0.00 91 1012.3
20210916111517 68 302 1.0 3.0 0.00 0.00 0.00 91 1012.2
20210916110516 68 325 1.0 3.0 0.00 0.00 0.00 91 1012.2
20210916105533 68 226 1.0 2.0 0.00 0.00 0.00 91 1012.1
20210916104532 68 0.0 1.0 0.00 0.00 0.00 91 1012.0
20210916103532 68 12 1.0 3.0 0.00 0.00 0.00 91 1012.1
20210916102530 68 315 1.0 3.0 0.00 0.00 0.00 91 1012.1
20210916101529 68 333 1.0 3.0 0.00 0.00 0.00 91 1011.9
20210916100523 68 303 1.0 2.0 0.00 0.01 0.00 91 1011.8
20210916095516 68 110 1.0 3.0 0.00 0.01 0.00 91 1011.9
20210916094516 68 349 1.0 3.0 0.00 0.01 0.00 91 1011.8
20210916093515 68 350 1.0 4.0 0.00 0.01 0.00 91 1011.7
20210916092533 68 336 1.0 3.0 0.00 0.01 0.00 91 1011.7
20210916091533 68 283 1.0 2.0 0.00 0.01 0.00 91 1011.8
20210916090532 68 344 1.0 2.0 0.00 0.01 0.00 91 1011.7
20210916085529 68 260 2.0 3.0 0.00 0.01 0.00 91 1011.7
20210916084529 68 317 1.0 3.0 0.00 0.01 0.00 91 1011.7
20210916083523 68 130 2.0 4.0 0.00 0.01 0.00 91 1011.6
20210916082516 68 40 1.0 3.0 0.00 0.01 0.00 92 1011.6
20210916081516 68 107 2.0 3.0 0.00 0.02 0.00 92 1011.9
20210916080533 68 128 2.0 2.0 0.00 0.02 0.00 92 1011.8
20210916075532 68 212 2.0 4.0 0.00 0.02 0.00 92 1011.9
20210916074531 68 106 2.0 3.0 0.00 0.02 0.00 92 1012.0
20210916073531 68 334 1.0 3.0 0.00 0.02 0.00 92 1011.9
20210916072529 67 129 1.0 3.0 0.00 0.02 0.00 92 1011.9
20210916071529 67 88 1.0 2.0 0.00 0.02 0.00 92 1012.0
20210916070522 67 103 1.0 2.0 0.00 0.02 0.00 92 1012.0
20210916065534 67 178 2.0 3.0 0.00 0.02 0.00 92 1012.0
20210916064533 67 100 1.0 2.0 0.00 0.03 0.00 92 1012.2
20210916063533 67 50 2.0 4.0 0.00 0.03 0.00 92 1012.2
20210916062532 67 101 1.0 3.0 0.00 0.11 0.00 92 1012.2
20210916061532 67 73 1.0 3.0 0.00 0.18 0.00 91 1012.2
20210916060532 67 338 0.0 1.0 0.00 0.18 0.00 91 1012.2
20210916055519 67 277 0.0 2.0 0.00 0.18 0.00 91 1012.2
20210916054519 67 0.0 0.0 0.00 0.18 0.00 91 1012.3
20210916053518 67 292 1.0 2.0 0.00 0.18 0.00 91 1012.4
20210916052517 67 338 0.0 1.0 0.00 0.18 0.00 91 1012.4
20210916051517 67 0.0 0.0 0.00 0.18 0.00 91 1012.3
20210916050515 67 0.0 0.0 0.00 0.18 0.00 91 1012.4
20210916045520 67 0.0 0.0 0.00 0.20 0.20 91 1012.3
20210916044525 67 0.0 0.0 0.00 0.27 0.20 91 1012.3
20210916043525 68 90 0.0 2.0 0.00 0.27 0.20 91 1012.5
20210916042525 68 0.0 0.0 0.00 0.27 0.20 91 1012.5
20210916041525 68 275 1.0 2.0 0.00 0.27 0.20 91 1012.5
20210916040523 68 0.0 0.0 0.00 0.27 0.20 91 1012.4
20210916035522 68 0.0 0.0 0.00 0.27 0.20 91 1012.4
20210916034520 68 0.0 0.0 0.00 0.27 0.20 91 1012.3
20210916033526 68 113 0.0 1.0 0.00 0.27 0.20 91 1012.4
20210916032520 68 0.0 0.0 0.00 0.28 0.20 91 1012.5
20210916031525 68 0.0 1.0 0.00 0.29 0.20 91 1012.7
20210916030525 68 45 0.0 2.0 0.00 0.29 0.20 91 1012.8
20210916025524 68 0.0 0.0 0.00 0.30 0.20 91 1012.7
20210916024523 68 315 0.0 2.0 0.00 0.30 0.20 91 1012.5
20210916023523 68 0.0 0.0 0.00 0.30 0.20 90 1012.5
20210916022522 68 0.0 0.0 0.00 0.30 0.20 90 1012.5
20210916021520 68 270 0.0 2.0 0.00 0.30 0.20 90 1012.3
20210916020526 68 113 0.0 2.0 0.00 0.30 0.20 90 1012.1
20210916015519 68 0.0 0.0 0.00 0.30 0.20 90 1011.9
20210916014524 68 135 1.0 2.0 0.00 0.31 0.20 89 1011.8
20210916013527 69 0.0 0.0 0.00 0.33 0.20 89 1011.7
20210916012523 69 0.0 0.0 0.00 0.34 0.20 89 1011.7
20210916011523 69 0.0 0.0 0.00 0.34 0.20 89 1011.7
20210916010522 69 0.0 0.0 0.00 0.34 0.20 89 1011.4
20210916005521 69 0.0 0.0 0.00 0.34 0.20 89 1011.4
20210916004520 69 119 1.0 5.0 0.00 0.34 0.20 88 1011.2
20210916003526 70 0.0 0.0 0.00 0.34 0.20 87 1011.2
20210916002519 71 0.0 0.0 0.00 0.34 0.20 87 1011.2
20210916001525 71 0.0 0.0 0.00 0.35 0.20 87 1011.1
20210916000528 72 0.0 0.0 0.00 0.35 0.20 86 1010.8
20210915235524 72 0.0 0.0 0.00 0.36 0.20 86 1010.7
20210915234523 73 132 1.0 3.0 0.00 0.36 0.20 86 1010.8
20210915233523 73 166 1.0 3.0 0.00 0.36 0.20 85 1010.9
20210915232522 74 0.0 0.0 0.00 0.36 0.20 84 1010.9
20210915231522 74 113 1.0 3.0 0.00 0.36 0.20 84 1010.8
20210915230526 75 119 1.0 2.0 0.00 0.36 0.20 83 1010.7
20210915225519 75 110 1.0 4.0 0.00 0.36 0.20 82 1010.8
20210915224524 74 130 2.0 4.0 0.00 0.36 0.20 82 1010.9
20210915223524 76 111 2.0 4.0 0.00 0.36 0.20 80 1010.8
20210915222523 76 116 3.0 5.0 0.00 0.36 0.20 80 1010.7
20210915221522 77 164 2.0 4.0 0.00 0.36 0.20 81 1010.6
20210915220522 78 298 3.0 7.0 0.00 0.36 0.20 79 1010.6
20210915215521 78 0.0 0.0 0.00 0.36 0.20 81 1010.7
20210915214519 79 0.0 0.0 0.00 0.36 0.20 80 1010.7
20210915213525 78 0.0 0.0 0.00 0.36 0.20 79 1010.8
20210915212518 77 0.0 0.0 0.00 0.36 0.20 82 1010.9
20210915211530 78 0.0 0.0 0.00 0.36 0.20 82 1010.9
20210915210530 79 0.0 0.0 0.00 0.36 0.20 78 1011.0
20210915205531 80 0.0 0.0 0.00 0.36 0.20 74 1011.2
20210915204528 81 0.0 0.0 0.00 0.37 0.20 72 1011.1
20210915203527 79 326 1.0 2.0 0.00 0.39 0.20 73 1011.2
20210915202527 80 46 0.0 3.0 0.00 0.40 0.20 72 1011.3
20210915201525 80 208 2.0 4.0 0.00 0.40 0.20 72 1011.2
20210915200525 79 336 0.0 2.0 0.00 0.40 0.20 73 1011.4
20210915195517 79 76 1.0 2.0 0.00 0.40 0.20 74 1011.5
20210915194517 79 0.0 0.0 0.00 0.40 0.20 73 1011.6
20210915193517 78 0.0 0.0 0.00 0.40 0.20 75 1011.7
20210915192516 78 148 0.0 2.0 0.00 0.40 0.20 77 1011.7
20210915191516 78 9 1.0 2.0 0.00 0.40 0.20 76 1011.9
20210915190533 78 144 1.0 3.0 0.00 0.40 0.20 75 1011.9
20210915185517 79 110 1.0 2.0 0.00 0.40 0.20 78 1011.8
20210915184517 79 284 1.0 2.0 0.00 0.40 0.20 75 1011.9
20210915183517 80 63 2.0 4.0 0.00 0.40 0.20 70 1012.1
20210915182516 79 108 1.0 3.0 0.00 0.40 0.20 76 1012.2
20210915181516 79 241 1.0 2.0 0.00 0.40 0.20 74 1012.4
20210915180533 80 156 2.0 3.0 0.00 0.40 0.20 72 1012.7
20210915175531 80 163 2.0 4.0 0.00 0.40 0.20 71 1012.9
20210915174530 80 156 2.0 4.0 0.00 0.40 0.20 72 1013.1
20210915173525 79 116 2.0 3.0 0.00 0.40 0.20 74 1013.3
20210915172518 79 132 2.0 4.0 0.00 0.40 0.20 73 1013.4
20210915171517 78 141 2.0 3.0 0.00 0.40 0.20 74 1013.3
20210915170517 79 66 2.0 3.0 0.00 0.40 0.20 78 1013.6
20210915165515 78 139 2.0 3.0 0.00 0.40 0.20 79 1013.6
20210915164533 77 117 2.0 4.0 0.00 0.40 0.20 80 1013.9
20210915163533 76 157 2.0 3.0 0.00 0.40 0.20 82 1014.0
20210915162531 75 180 0.0 1.0 0.00 0.40 0.20 82 1014.0
20210915161531 75 139 2.0 3.0 0.00 0.40 0.20 84 1013.9
20210915160524 75 0.0 0.0 0.00 0.40 0.20 84 1013.9
20210915155517 75 0.0 0.0 0.00 0.40 0.20 83 1013.8
20210915154516 75 90 0.0 1.0 0.00 0.40 0.20 86 1013.9
20210915153516 76 0.0 0.0 0.00 0.40 0.20 85 1013.7
20210915152516 75 0.0 0.0 0.00 0.40 0.20 87 1013.6